Flagstaff, AZ

1:13 AM MST on October 18, 2017 (GMT -0700)
Flagstaff Pulliam

Weather History for KFLG - September, 2011

Change the Weather History Date:

Sunday, September 18, 2011

  Actual Average Record
Temperature  
Mean Temperature 56 °F 57 °F  
Max Temperature 74 °F 72 °F 86 °F (1956)
Min Temperature 38 °F 41 °F 27 °F (2006)
Degree Days  
Heating Degree Days 9 8  
Month to date heating degree days 98 102  
Since 1 July heating degree days 124 190  
Cooling Degree Days 0 0  
Month to date cooling degree days 5 0  
Year to date cooling degree days 170 114  
Growing Degree Days 4 (Base 50)    
Moisture  
Dew Point 39 °F    
Average Humidity 61    
Maximum Humidity 92    
Minimum Humidity 29    
Precipitation  
Precipitation 0.00 in 0.08 in 2.11 in (1965)
Month to date precipitation 3.33 1.53  
Year to date precipitation 14.67 15.72  
Snow  
Snow 0.00 in 0.00 in 0.00 in (2002)
Month to date snowfall 0.0 0.0  
Since 1 July snowfall 0.0 0.0  
Snow Depth 0.00 in    
Sea Level Pressure  
Sea Level Pressure 30.18 in    
Wind  
Wind Speed 2 mph (ENE)    
Max Wind Speed 12 mph    
Max Gust Speed 16 mph    
Visibility 10 miles    
Events      
T = Trace of Precipitation, MM = Missing Value Source: NWS Daily Summary

Daily Weather History Graph

Daily Weather History Graph

Search for Another Location

Airport or City:

Trip Planner

Search our weather history database for the weather conditions in past years. The results will help you decide how hot, cold, wet, or windy it might be!

Date:

Astronomy

Sep. 18, 2011 Rise Set
Actual Time 6:11 AM MST 6:29 PM MST
Civil Twilight 5:46 AM MST 6:54 PM MST
Nautical Twilight 5:16 AM MST 7:24 PM MST
Astronomical Twilight 4:46 AM MST 7:54 PM MST
Moon 10:03 PM MST 11:57 AM MST
Length of Visible Light 13h 08m
Length of Day
12h 17m
Waning Gibbous, 67% of the Moon is Illuminated
Sep 18
Waning Gibbous
Sep 20
Last Quarter
Sep 27
New
Oct 3
First Quarter
Oct 11
Full

Hourly Weather History & Observations

Time (MST) Temp. Dew Point Humidity Pressure Visibility Wind Dir Wind Speed Gust Speed Precip Events Conditions
12:57 AM 42.1 °F 35.1 °F 76% 30.13 in 10.0 mi Calm Calm - N/A   Clear
1:57 AM 41.0 °F 35.1 °F 79% 30.14 in 10.0 mi Calm Calm - N/A   Clear
2:57 AM 41.0 °F 35.1 °F 79% 30.13 in 10.0 mi Calm Calm - N/A   Clear
3:57 AM 41.0 °F 35.1 °F 79% 30.13 in 10.0 mi Calm Calm - N/A   Clear
4:57 AM 41.0 °F 36.0 °F 82% 30.14 in 10.0 mi Calm Calm - N/A   Clear
5:57 AM 37.9 °F 35.1 °F 89% 30.17 in 10.0 mi Calm Calm - N/A   Clear
6:57 AM 42.1 °F 37.9 °F 85% 30.20 in 10.0 mi Calm Calm - N/A   Clear
7:57 AM 54.0 °F 39.9 °F 59% 30.19 in 10.0 mi Calm Calm - N/A   Clear
8:57 AM 62.6 °F 42.8 °F 48% 30.41 in 10.0 mi NE 5.8 mph - N/A   Clear
9:57 AM 66.9 °F 39.9 °F 37% 30.19 in 10.0 mi ENE 6.9 mph - N/A   Clear
10:57 AM 68.0 °F 37.9 °F 33% 30.19 in 10.0 mi Variable 5.8 mph - N/A   Partly Cloudy
11:46 AM 68.0 °F 39.2 °F 35% 30.41 in 10.0 mi East 5.8 mph - N/A   Scattered Clouds
11:57 AM 68.0 °F 39.9 °F 36% 30.19 in 10.0 mi Calm Calm - N/A   Partly Cloudy
12:57 PM 69.1 °F 37.9 °F 32% 30.17 in 10.0 mi Variable 3.5 mph - N/A   Clear
1:57 PM 72.0 °F 37.9 °F 29% 30.15 in 10.0 mi Calm Calm - N/A   Partly Cloudy
2:57 PM 72.0 °F 37.9 °F 29% 30.13 in 10.0 mi Variable 6.9 mph - N/A   Clear
3:57 PM 72.0 °F 37.9 °F 29% 30.12 in 10.0 mi Calm Calm - N/A   Partly Cloudy
4:57 PM 71.1 °F 37.9 °F 30% 30.13 in 10.0 mi East 5.8 mph - N/A   Clear
5:57 PM 68.0 °F 42.1 °F 39% 30.15 in 10.0 mi ENE 4.6 mph - N/A   Clear
6:57 PM 59.0 °F 44.1 °F 58% 30.18 in 10.0 mi Calm Calm - N/A   Clear
7:57 PM 55.9 °F 43.0 °F 62% 30.17 in 10.0 mi Calm Calm - N/A   Clear
8:57 PM 52.0 °F 42.1 °F 69% 30.15 in 10.0 mi Calm Calm - N/A   Clear
9:57 PM 50.0 °F 41.0 °F 71% 30.15 in 10.0 mi Calm Calm - N/A   Clear
10:57 PM 48.0 °F 41.0 °F 77% 30.15 in 10.0 mi Calm Calm - N/A   Clear
11:57 PM 46.0 °F 39.9 °F 79% 30.16 in 10.0 mi Calm Calm - N/A   Clear